Time,TemperatureF,DewpointF,PressureIn,WindDirection,WindDirectionDegrees,WindSpeedMPH,WindSpeedGustMPH,Humidity,HourlyPrecipIn,Conditions,Clouds,dailyrainin,SoftwareType,DateUTC
2013-02-06 00:02:00,24.0,20.0,30.09,North,350,2.0,-999.0,86,-99.99,,,-99.99,,2013-02-06 05:02:00,
2013-02-06 00:12:00,24.0,20.0,30.09,North,350,2.0,-999.0,86,-99.99,,,-99.99,,2013-02-06 05:12:00,
2013-02-06 00:22:00,24.0,20.0,30.09,NNW,328,2.0,-999.0,85,-99.99,,,-99.99,,2013-02-06 05:22:00,
2013-02-06 00:32:00,24.0,20.0,30.10,NNW,333,2.0,-999.0,85,-99.99,,,-99.99,,2013-02-06 05:32:00,
2013-02-06 00:42:00,24.0,20.0,30.10,NNW,333,2.0,-999.0,85,-99.99,,,-99.99,,2013-02-06 05:42:00,
2013-02-06 00:53:00,24.0,20.0,30.11,NNW,333,1.0,-999.0,85,-99.99,,,-99.99,,2013-02-06 05:53:00,
2013-02-06 01:01:00,24.0,20.0,30.11,NNW,333,1.0,-999.0,85,-99.99,,,-99.99,,2013-02-06 06:01:00,
2013-02-06 01:11:00,24.0,20.0,30.11,NNW,333,1.0,-999.0,85,-99.99,,,-99.99,,2013-02-06 06:11:00,
2013-02-06 01:22:00,24.0,20.0,30.12,NNW,340,1.0,-999.0,84,-99.99,,,-99.99,,2013-02-06 06:22:00,
2013-02-06 01:32:00,24.0,20.0,30.12,NNW,340,1.0,-999.0,84,-99.99,,,-99.99,,2013-02-06 06:32:00,
2013-02-06 01:42:00,24.0,20.0,30.12,NNW,340,1.0,-999.0,84,-99.99,,,-99.99,,2013-02-06 06:42:00,
2013-02-06 01:51:00,23.0,19.0,30.13,NNW,341,1.0,-999.0,84,-99.99,,,-99.99,,2013-02-06 06:51:00,
2013-02-06 02:02:00,23.0,19.0,30.13,NNW,341,0.0,-999.0,85,-99.99,,,-99.99,,2013-02-06 07:02:00,
2013-02-06 02:11:00,23.0,19.0,30.13,NNW,341,0.0,-999.0,85,-99.99,,,-99.99,,2013-02-06 07:11:00,
2013-02-06 02:22:00,23.0,19.0,30.14,NNW,341,0.0,-999.0,85,-99.99,,,-99.99,,2013-02-06 07:22:00,
2013-02-06 02:32:00,23.0,19.0,30.16,NNW,341,0.0,-999.0,84,-99.99,,,-99.99,,2013-02-06 07:32:00,
2013-02-06 02:42:00,23.0,19.0,30.16,NNW,341,0.0,-999.0,84,-99.99,,,-99.99,,2013-02-06 07:42:00,
2013-02-06 02:51:00,22.0,18.0,30.15,NNW,341,0.0,-999.0,84,-99.99,,,-99.99,,2013-02-06 07:51:00,
2013-02-06 03:01:00,22.0,18.0,30.16,NNW,341,0.0,-999.0,84,-99.99,,,-99.99,,2013-02-06 08:01:00,
2013-02-06 03:11:00,22.0,18.0,30.16,NNW,341,0.0,-999.0,84,-99.99,,,-99.99,,2013-02-06 08:11:00,
2013-02-06 03:21:00,21.0,17.0,30.17,NNW,341,0.0,-999.0,84,-99.99,,,-99.99,,2013-02-06 08:21:00,
2013-02-06 03:32:00,20.0,16.0,30.17,NNW,341,0.0,-999.0,84,-99.99,,,-99.99,,2013-02-06 08:32:00,
2013-02-06 03:42:00,20.0,16.0,30.17,NNW,341,0.0,-999.0,84,-99.99,,,-99.99,,2013-02-06 08:42:00,
2013-02-06 03:53:00,19.0,15.0,30.17,NNW,341,0.0,-999.0,83,-99.99,,,-99.99,,2013-02-06 08:53:00,
2013-02-06 04:02:00,18.0,14.0,30.18,NNW,341,0.0,-999.0,83,-99.99,,,-99.99,,2013-02-06 09:02:00,
2013-02-06 04:11:00,18.0,14.0,30.18,NNW,341,0.0,-999.0,83,-99.99,,,-99.99,,2013-02-06 09:11:00,
2013-02-06 04:21:00,17.0,13.0,30.18,NNW,341,0.0,-999.0,83,-99.99,,,-99.99,,2013-02-06 09:21:00,
2013-02-06 04:32:00,16.0,12.0,30.19,NNW,341,0.0,-999.0,83,-99.99,,,-99.99,,2013-02-06 09:32:00,
2013-02-06 04:42:00,16.0,12.0,30.19,NNW,341,0.0,-999.0,83,-99.99,,,-99.99,,2013-02-06 09:42:00,
2013-02-06 04:52:00,15.0,11.0,30.20,NNW,341,0.0,-999.0,83,-99.99,,,-99.99,,2013-02-06 09:52:00,
2013-02-06 05:01:00,15.0,11.0,30.21,NNW,341,0.0,-999.0,83,-99.99,,,-99.99,,2013-02-06 10:01:00,
2013-02-06 05:11:00,15.0,11.0,30.21,NNW,341,0.0,-999.0,83,-99.99,,,-99.99,,2013-02-06 10:11:00,
2013-02-06 05:21:00,14.0,10.0,30.22,NNW,341,0.0,-999.0,84,-99.99,,,-99.99,,2013-02-06 10:21:00,
2013-02-06 05:32:00,14.0,10.0,30.22,NNW,341,0.0,-999.0,85,-99.99,,,-99.99,,2013-02-06 10:32:00,
2013-02-06 05:42:00,14.0,10.0,30.22,NNW,341,0.0,-999.0,85,-99.99,,,-99.99,,2013-02-06 10:42:00,
2013-02-06 05:52:00,15.0,12.0,30.22,NNW,341,0.0,-999.0,86,-99.99,,,-99.99,,2013-02-06 10:52:00,
2013-02-06 06:01:00,15.0,12.0,30.22,NNW,341,0.0,-999.0,86,-99.99,,,-99.99,,2013-02-06 11:01:00,
2013-02-06 06:11:00,15.0,12.0,30.22,NNW,341,0.0,-999.0,86,-99.99,,,-99.99,,2013-02-06 11:11:00,
2013-02-06 06:22:00,14.0,11.0,30.22,NNW,341,0.0,-999.0,86,-99.99,,,-99.99,,2013-02-06 11:22:00,
2013-02-06 06:32:00,14.0,11.0,30.23,NNW,341,0.0,-999.0,86,-99.99,,,-99.99,,2013-02-06 11:32:00,
2013-02-06 06:42:00,14.0,11.0,30.23,NNW,341,0.0,-999.0,86,-99.99,,,-99.99,,2013-02-06 11:42:00,
2013-02-06 06:53:00,13.0,10.0,30.24,NNW,341,0.0,-999.0,86,-99.99,,,-99.99,,2013-02-06 11:53:00,
2013-02-06 07:02:00,12.0,9.0,30.24,NNW,341,0.0,-999.0,86,-99.99,,,-99.99,,2013-02-06 12:02:00,
2013-02-06 07:12:00,12.0,9.0,30.24,NNW,341,0.0,-999.0,86,-99.99,,,-99.99,,2013-02-06 12:12:00,
2013-02-06 07:22:00,11.0,8.0,30.26,NNW,341,0.0,-999.0,86,-99.99,,,-99.99,,2013-02-06 12:22:00,
2013-02-06 07:32:00,11.0,8.0,30.26,NNW,341,1.0,-999.0,86,-99.99,,,-99.99,,2013-02-06 12:32:00,
2013-02-06 07:42:00,11.0,8.0,30.26,NNW,341,1.0,-999.0,86,-99.99,,,-99.99,,2013-02-06 12:42:00,
2013-02-06 07:52:00,10.0,7.0,30.26,NNW,341,0.0,-999.0,86,-99.99,,,-99.99,,2013-02-06 12:52:00,
2013-02-06 08:01:00,10.0,7.0,30.28,NNW,341,0.0,-999.0,86,-99.99,,,-99.99,,2013-02-06 13:01:00,
2013-02-06 08:12:00,10.0,7.0,30.28,NNW,341,0.0,-999.0,86,-99.99,,,-99.99,,2013-02-06 13:12:00,
2013-02-06 08:22:00,9.0,6.0,30.29,NNW,341,0.0,-999.0,86,-99.99,,,-99.99,,2013-02-06 13:22:00,
2013-02-06 08:32:00,9.0,6.0,30.28,NNW,341,0.0,-999.0,87,-99.99,,,-99.99,,2013-02-06 13:32:00,
2013-02-06 08:42:00,9.0,6.0,30.28,NNW,341,0.0,-999.0,87,-99.99,,,-99.99,,2013-02-06 13:42:00,
2013-02-06 08:52:00,10.0,7.0,30.28,NNW,341,0.0,-999.0,87,-99.99,,,-99.99,,2013-02-06 13:52:00,
2013-02-06 09:02:00,10.0,7.0,30.28,NNW,341,0.0,-999.0,87,-99.99,,,-99.99,,2013-02-06 14:02:00,
2013-02-06 09:11:00,10.0,7.0,30.28,NNW,341,0.0,-999.0,87,-99.99,,,-99.99,,2013-02-06 14:11:00,
2013-02-06 09:22:00,11.0,8.0,30.29,NNW,341,0.0,-999.0,88,-99.99,,,-99.99,,2013-02-06 14:22:00,
2013-02-06 09:32:00,15.0,13.0,30.29,NNW,341,0.0,-999.0,91,-99.99,,,-99.99,,2013-02-06 14:32:00,
2013-02-06 09:42:00,18.0,16.0,30.30,NNW,346,1.0,-999.0,91,-99.99,,,-99.99,,2013-02-06 14:42:00,
2013-02-06 09:52:00,18.0,16.0,30.30,NNW,346,1.0,-999.0,91,-99.99,,,-99.99,,2013-02-06 14:52:00,
2013-02-06 10:02:00,19.0,17.0,30.31,NNW,346,0.0,-999.0,91,-99.99,,,-99.99,,2013-02-06 15:02:00,
2013-02-06 10:11:00,19.0,17.0,30.31,NNW,346,0.0,-999.0,91,-99.99,,,-99.99,,2013-02-06 15:11:00,
2013-02-06 10:21:00,19.0,17.0,30.31,NNW,346,0.0,-999.0,91,-99.99,,,-99.99,,2013-02-06 15:21:00,
2013-02-06 10:32:00,21.0,19.0,30.32,NNE,25,0.0,-999.0,90,-99.99,,,-99.99,,2013-02-06 15:32:00,
2013-02-06 10:42:00,21.0,19.0,30.32,NNE,25,0.0,-999.0,90,-99.99,,,-99.99,,2013-02-06 15:42:00,
2013-02-06 10:52:00,22.0,19.0,30.32,NNE,26,0.0,-999.0,88,-99.99,,,-99.99,,2013-02-06 15:52:00,
2013-02-06 11:01:00,23.0,19.0,30.32,East,93,1.0,-999.0,86,-99.99,,,-99.99,,2013-02-06 16:01:00,
2013-02-06 11:11:00,23.0,19.0,30.32,East,93,1.0,-999.0,86,-99.99,,,-99.99,,2013-02-06 16:11:00,
2013-02-06 11:21:00,25.0,21.0,30.32,SSE,155,0.0,-999.0,83,-99.99,,,-99.99,,2013-02-06 16:21:00,
2013-02-06 11:32:00,27.0,21.0,30.32,South,178,2.0,-999.0,77,-99.99,,,-99.99,,2013-02-06 16:32:00,
2013-02-06 11:42:00,27.0,21.0,30.32,South,178,2.0,-999.0,77,-99.99,,,-99.99,,2013-02-06 16:42:00,
2013-02-06 11:52:00,27.0,20.0,30.32,South,170,3.0,-999.0,75,-99.99,,,-99.99,,2013-02-06 16:52:00,
2013-02-06 12:02:00,28.0,20.0,30.32,SSE,155,4.0,-999.0,70,-99.99,,,-99.99,,2013-02-06 17:02:00,
2013-02-06 12:12:00,28.0,20.0,30.32,SSE,155,4.0,-999.0,70,-99.99,,,-99.99,,2013-02-06 17:12:00,
2013-02-06 12:22:00,29.0,20.0,30.33,South,178,2.0,-999.0,68,-99.99,,,-99.99,,2013-02-06 17:22:00,
2013-02-06 12:32:00,30.0,21.0,30.33,South,184,2.0,-999.0,68,-99.99,,,-99.99,,2013-02-06 17:32:00,
2013-02-06 12:42:00,30.0,21.0,30.32,SW,227,1.0,-999.0,69,-99.99,,,-99.99,,2013-02-06 17:42:00,
2013-02-06 12:52:00,30.0,21.0,30.32,SW,227,1.0,-999.0,69,-99.99,,,-99.99,,2013-02-06 17:52:00,
2013-02-06 13:02:00,31.0,22.0,30.33,WSW,246,2.0,-999.0,68,-99.99,,,-99.99,,2013-02-06 18:02:00,
2013-02-06 13:12:00,31.0,21.0,30.32,SW,236,2.0,-999.0,65,-99.99,,,-99.99,,2013-02-06 18:12:00,
2013-02-06 13:23:00,31.0,21.0,30.32,SW,236,2.0,-999.0,65,-99.99,,,-99.99,,2013-02-06 18:23:00,
2013-02-06 13:32:00,31.0,21.0,30.31,South,185,3.0,-999.0,66,-99.99,,,-99.99,,2013-02-06 18:32:00,
2013-02-06 13:42:00,31.0,21.0,30.31,South,185,3.0,-999.0,66,-99.99,,,-99.99,,2013-02-06 18:42:00,
2013-02-06 13:52:00,32.0,22.0,30.31,SSW,195,2.0,-999.0,66,-99.99,,,-99.99,,2013-02-06 18:52:00,
2013-02-06 14:02:00,32.0,22.0,30.30,South,177,3.0,-999.0,65,-99.99,,,-99.99,,2013-02-06 19:02:00,
2013-02-06 14:11:00,32.0,22.0,30.30,South,177,3.0,-999.0,65,-99.99,,,-99.99,,2013-02-06 19:11:00,
2013-02-06 14:21:00,32.0,22.0,30.30,WSW,238,3.0,-999.0,67,-99.99,,,-99.99,,2013-02-06 19:21:00,
2013-02-06 14:32:00,32.0,21.0,30.29,SW,227,3.0,-999.0,64,-99.99,,,-99.99,,2013-02-06 19:32:00,
2013-02-06 14:42:00,32.0,21.0,30.29,SW,227,3.0,-999.0,64,-99.99,,,-99.99,,2013-02-06 19:42:00,
2013-02-06 14:52:00,33.0,22.0,30.29,SW,231,3.0,-999.0,64,-99.99,,,-99.99,,2013-02-06 19:52:00,
2013-02-06 15:01:00,33.0,22.0,30.27,SW,236,3.0,-999.0,64,-99.99,,,-99.99,,2013-02-06 20:01:00,
2013-02-06 15:11:00,33.0,22.0,30.27,South,175,2.0,-999.0,63,-99.99,,,-99.99,,2013-02-06 20:11:00,
2013-02-06 15:21:00,33.0,22.0,30.27,South,175,2.0,-999.0,63,-99.99,,,-99.99,,2013-02-06 20:21:00,
2013-02-06 15:32:00,32.0,21.0,30.28,WSW,237,2.0,-999.0,63,-99.99,,,-99.99,,2013-02-06 20:32:00,
2013-02-06 15:42:00,32.0,21.0,30.28,WSW,237,2.0,-999.0,63,-99.99,,,-99.99,,2013-02-06 20:42:00,
2013-02-06 15:52:00,33.0,22.0,30.29,SW,236,3.0,-999.0,64,-99.99,,,-99.99,,2013-02-06 20:52:00,
2013-02-06 16:02:00,32.0,22.0,30.29,WSW,247,6.0,-999.0,66,-99.99,,,-99.99,,2013-02-06 21:02:00,
2013-02-06 16:11:00,32.0,22.0,30.29,WSW,247,6.0,-999.0,66,-99.99,,,-99.99,,2013-02-06 21:11:00,
2013-02-06 16:21:00,33.0,23.0,30.29,WSW,254,2.0,-999.0,67,-99.99,,,-99.99,,2013-02-06 21:21:00,
2013-02-06 16:32:00,32.0,22.0,30.30,WSW,247,2.0,-999.0,66,-99.99,,,-99.99,,2013-02-06 21:32:00,
2013-02-06 16:42:00,32.0,22.0,30.30,WSW,247,2.0,-999.0,66,-99.99,,,-99.99,,2013-02-06 21:42:00,
2013-02-06 16:51:00,32.0,22.0,30.30,West,279,3.0,-999.0,67,-99.99,,,-99.99,,2013-02-06 21:51:00,
2013-02-06 17:01:00,33.0,23.0,30.29,West,267,2.0,-999.0,67,-99.99,,,-99.99,,2013-02-06 22:01:00,
2013-02-06 17:11:00,33.0,23.0,30.29,West,267,2.0,-999.0,67,-99.99,,,-99.99,,2013-02-06 22:11:00,
2013-02-06 17:21:00,32.0,22.0,30.29,West,269,1.0,-999.0,67,-99.99,,,-99.99,,2013-02-06 22:21:00,
2013-02-06 17:32:00,31.0,23.0,30.29,West,269,0.0,-999.0,71,-99.99,,,-99.99,,2013-02-06 22:32:00,
2013-02-06 17:42:00,31.0,23.0,30.29,West,269,0.0,-999.0,71,-99.99,,,-99.99,,2013-02-06 22:42:00,
2013-02-06 17:52:00,30.0,22.0,30.29,West,269,0.0,-999.0,71,-99.99,,,-99.99,,2013-02-06 22:52:00,
2013-02-06 18:01:00,29.0,22.0,30.29,West,269,0.0,-999.0,74,-99.99,,,-99.99,,2013-02-06 23:01:00,
2013-02-06 18:11:00,29.0,22.0,30.29,West,269,0.0,-999.0,74,-99.99,,,-99.99,,2013-02-06 23:11:00,
2013-02-06 18:21:00,27.0,20.0,30.29,West,269,0.0,-999.0,76,-99.99,,,-99.99,,2013-02-06 23:21:00,
2013-02-06 18:32:00,27.0,20.0,30.29,West,269,0.0,-999.0,76,-99.99,,,-99.99,,2013-02-06 23:32:00,
2013-02-06 18:42:00,27.0,20.0,30.29,West,269,0.0,-999.0,76,-99.99,,,-99.99,,2013-02-06 23:42:00,
2013-02-06 18:52:00,26.0,22.0,30.31,West,269,0.0,-999.0,83,-99.99,,,-99.99,,2013-02-06 23:52:00,
2013-02-06 19:01:00,26.0,22.0,30.30,West,269,0.0,-999.0,84,-99.99,,,-99.99,,2013-02-07 00:01:00,
2013-02-06 19:11:00,26.0,22.0,30.30,West,269,0.0,-999.0,84,-99.99,,,-99.99,,2013-02-07 00:11:00,
2013-02-06 19:21:00,27.0,23.0,30.30,West,269,0.0,-999.0,85,-99.99,,,-99.99,,2013-02-07 00:21:00,
2013-02-06 19:32:00,27.0,23.0,30.28,West,269,0.0,-999.0,85,-99.99,,,-99.99,,2013-02-07 00:32:00,
2013-02-06 19:42:00,27.0,23.0,30.28,West,269,0.0,-999.0,85,-99.99,,,-99.99,,2013-02-07 00:42:00,
2013-02-06 19:52:00,28.0,24.0,30.29,West,269,0.0,-999.0,85,-99.99,,,-99.99,,2013-02-07 00:52:00,
2013-02-06 20:01:00,29.0,24.0,30.29,West,269,0.0,-999.0,81,-99.99,,,-99.99,,2013-02-07 01:01:00,
2013-02-06 20:11:00,29.0,24.0,30.29,West,269,0.0,-999.0,81,-99.99,,,-99.99,,2013-02-07 01:11:00,
2013-02-06 20:21:00,29.0,23.0,30.29,West,269,0.0,-999.0,77,-99.99,,,-99.99,,2013-02-07 01:21:00,
2013-02-06 20:32:00,29.0,22.0,30.28,South,176,1.0,-999.0,75,-99.99,,,-99.99,,2013-02-07 01:32:00,
2013-02-06 20:42:00,29.0,22.0,30.28,South,176,1.0,-999.0,75,-99.99,,,-99.99,,2013-02-07 01:42:00,
2013-02-06 20:52:00,29.0,22.0,30.28,South,176,1.0,-999.0,75,-99.99,,,-99.99,,2013-02-07 01:52:00,
2013-02-06 21:01:00,29.0,22.0,30.28,South,176,1.0,-999.0,75,-99.99,,,-99.99,,2013-02-07 02:01:00,
2013-02-06 21:11:00,29.0,22.0,30.28,South,176,1.0,-999.0,75,-99.99,,,-99.99,,2013-02-07 02:11:00,
2013-02-06 21:21:00,29.0,22.0,30.26,SSE,164,2.0,-999.0,74,-99.99,,,-99.99,,2013-02-07 02:21:00,
2013-02-06 21:32:00,29.0,22.0,30.26,SE,134,2.0,-999.0,74,-99.99,,,-99.99,,2013-02-07 02:32:00,
2013-02-06 21:42:00,29.0,22.0,30.26,SE,134,2.0,-999.0,74,-99.99,,,-99.99,,2013-02-07 02:42:00,
2013-02-06 21:52:00,29.0,22.0,30.26,SE,134,2.0,-999.0,74,-99.99,,,-99.99,,2013-02-07 02:52:00,
2013-02-06 22:02:00,29.0,22.0,30.27,SSE,151,1.0,-999.0,75,-99.99,,,-99.99,,2013-02-07 03:02:00,
2013-02-06 22:11:00,29.0,22.0,30.27,SE,140,1.0,-999.0,76,-99.99,,,-99.99,,2013-02-07 03:11:00,
2013-02-06 22:21:00,29.0,22.0,30.27,SE,140,1.0,-999.0,76,-99.99,,,-99.99,,2013-02-07 03:21:00,
2013-02-06 22:32:00,29.0,22.0,30.28,SE,140,0.0,-999.0,76,-99.99,,,-99.99,,2013-02-07 03:32:00,
2013-02-06 22:42:00,29.0,22.0,30.28,SE,140,0.0,-999.0,76,-99.99,,,-99.99,,2013-02-07 03:42:00,
2013-02-06 22:52:00,29.0,22.0,30.27,SE,140,1.0,-999.0,76,-99.99,,,-99.99,,2013-02-07 03:52:00,
2013-02-06 23:01:00,29.0,22.0,30.28,SE,141,0.0,-999.0,76,-99.99,,,-99.99,,2013-02-07 04:01:00,
2013-02-06 23:11:00,29.0,22.0,30.28,SE,141,0.0,-999.0,76,-99.99,,,-99.99,,2013-02-07 04:11:00,
2013-02-06 23:22:00,29.0,22.0,30.27,SE,136,3.0,-999.0,75,-99.99,,,-99.99,,2013-02-07 04:22:00,
2013-02-06 23:32:00,29.0,22.0,30.26,SE,139,2.0,-999.0,75,-99.99,,,-99.99,,2013-02-07 04:32:00,
2013-02-06 23:42:00,29.0,22.0,30.26,SE,139,2.0,-999.0,75,-99.99,,,-99.99,,2013-02-07 04:42:00,
2013-02-06 23:53:00,29.0,22.0,30.27,SSE,150,2.0,-999.0,75,-99.99,,,-99.99,,2013-02-07 04:53:00,